Flag for United Kingdom Weather past 2 weeks in Walsall, England, United Kingdom

Now
57 °F

Sprinkles. Scattered clouds.


Feels Like: 55 °F
Forecast: 46 / 62 °F
Wind: 12 mph from West

Location: Birmingham / Airport

Current Time: Aug 23, 2014 at 7:10:08 PM

Latest Report: Aug 23, 2014 at 6:20 PM


Visibility: N/A

Pressure: 30.01 "Hg

Humidity: 77%

Dew point: 50 °F

Location of WalsallLocation

Historic Weather in Walsall — Graph

°F

Walsall temperature yesterday

Maximum temperature yesterday: 63 °F (at 1:20 PM)
Minimum temperature yesterday: 52 °F (at 4:20 AM)
Average temperature yesterday: 57 °F

Past Weeks' High & Low Weather Summary

 TemperatureHumidityPressure
High72 °F (Aug 8, 5:20 PM)100% (Aug 10, 8:20 AM)30.15 "Hg (Aug 10, 8:20 AM)
Low45 °F (Aug 21, 3:20 AM)42% (Aug 18, 6:20 PM)29.27 "Hg (Aug 10, 11:50 AM)
Average58 °F71%29.81 "Hg
* Reported Aug 8 5:20 PM — Aug 23 5:50 PM, Walsall, Weather by CustomWeather, © 2014

Note: Actual official high and low records may vary slightly from our data, if they occured in-between our weather recording intervals... More about our weather records

Advertising

Walsall weather history for previous 24 hours

 ConditionsComfort  
Time TempWeatherWind HumidityBarometerVisibility
5:50 PM
Aug 23
57 °FSprinkles. Broken clouds.8 mph72%30.01 "HgN/A
5:20 PM57 °FScattered clouds.9 mph72%30.01 "HgN/A
4:50 PM57 °FScattered showers. Broken clouds.13 mph72%30.01 "HgN/A
4:20 PM59 °FScattered clouds.8 mph68%29.98 "HgN/A
3:50 PM57 °FScattered clouds.9 mph67%30.01 "HgN/A
3:20 PM55 °FScattered showers. Scattered clouds.9 mph77%30.01 "HgN/A
2:50 PM59 °FSprinkles. Scattered clouds.9 mph59%29.98 "HgN/A
2:20 PM57 °FLight rain. Scattered clouds.13 mph67%29.98 "HgN/A
1:50 PM59 °FLight rain. Broken clouds.14 mph63%29.98 "HgN/A
1:20 PM61 °FScattered showers. Scattered clouds.10 mph48%29.98 "HgN/A
12:50 PM61 °FPassing clouds.10 mph48%29.98 "HgN/A
12:20 PM59 °FPassing clouds.12 mph51%29.98 "HgN/A
11:50 AM59 °FPassing clouds.9 mph55%29.98 "HgN/A
11:20 AM57 °FBroken clouds.10 mph59%29.98 "HgN/A
10:50 AM57 °FBroken clouds.10 mph59%29.98 "HgN/A
10:20 AM57 °FBroken clouds.12 mph59%29.98 "HgN/A
9:50 AM57 °FPassing clouds.12 mph59%29.95 "HgN/A
9:20 AM55 °FPassing clouds.9 mph63%29.95 "HgN/A
8:50 AM55 °FPassing clouds.9 mph63%29.95 "HgN/A
8:20 AM54 °FSunny.7 mph72%29.95 "Hg10 mi
7:50 AM52 °FSunny.7 mph77%29.95 "Hg10 mi
7:20 AM52 °FSunny.7 mph77%29.95 "Hg10 mi
6:50 AM50 °FClear.6 mph82%29.95 "Hg10 mi
6:20 AM50 °FPassing clouds.5 mph82%29.95 "HgN/A
5:50 AM50 °FClear.6 mph82%29.92 "Hg10 mi
5:20 AM50 °FClear.6 mph82%29.92 "Hg10 mi
4:50 AM50 °FClear.3 mph82%29.92 "Hg10 mi
4:20 AM50 °FClear.5 mph82%29.92 "Hg10 mi
3:50 AM50 °FClear.6 mph82%29.92 "Hg10 mi
3:20 AM50 °FClear.5 mph76%29.92 "Hg10 mi
2:50 AM50 °FPassing clouds.6 mph76%29.92 "HgN/A
2:20 AM50 °FPassing clouds.5 mph76%29.95 "HgN/A
1:50 AM50 °FCool.6 mph76%29.95 "HgN/A
1:20 AM52 °FClear.5 mph72%29.95 "Hg10 mi
12:50 AM52 °FClear.6 mph72%29.95 "Hg10 mi
12:20 AM54 °FPassing clouds.7 mph67%29.95 "HgN/A
11:50 PM
Aug 22
54 °FClear.8 mph72%29.95 "Hg10 mi
11:20 PM54 °FClear.7 mph67%29.95 "Hg10 mi
10:50 PM55 °FClear.7 mph63%29.95 "Hg10 mi
10:20 PM55 °FClear.8 mph63%29.95 "Hg10 mi
9:50 PM55 °FClear.8 mph63%29.92 "Hg10 mi
9:20 PM57 °FClear.10 mph59%29.92 "Hg10 mi
8:50 PM57 °FPassing clouds.9 mph59%29.92 "HgN/A
8:20 PM59 °FPassing clouds.12 mph59%29.92 "HgN/A
7:50 PM59 °FPassing clouds.9 mph59%29.89 "HgN/A
7:20 PM59 °FPassing clouds.9 mph59%29.89 "HgN/A
Weather by CustomWeather, © 2014

See weather overviewHow to use our weather pages